Versailles, OH

6:08 AM EDT on April 25, 2017 (GMT -0400)
Darke County

Weather History for KVES - October, 2011

Change the Weather History Date:

Saturday, October 1, 2011

  Actual Average (KDAY) Record (KDAY)
Temperature  
Mean Temperature 44 °F -  
Max Temperature 50 °F 70 °F 93 °F (1897)
Min Temperature 37 °F 48 °F 26 °F (1899)
Degree Days  
Heating Degree Days 22    
Moisture  
Dew Point 37 °F    
Average Humidity 81    
Maximum Humidity 93    
Minimum Humidity 58    
Precipitation  
Precipitation 0.00 in - - ()
Sea Level Pressure  
Sea Level Pressure 30.08 in    
Wind  
Wind Speed 10 mph (NNW)    
Max Wind Speed 17 mph    
Max Gust Speed 25 mph    
Visibility 10 miles    
Events Rain    
Averages and records for this station are not official NWS values.
T = Trace of Precipitation, MM = Missing Value Source: NWS Daily Summary

Daily Weather History Graph

Daily Weather History Graph

Search for Another Location

Airport or City:

Trip Planner

Search our weather history database for the weather conditions in past years. The results will help you decide how hot, cold, wet, or windy it might be!

Date:

Astronomy

Oct. 01, 2011 Rise Set
Actual Time 7:34 AM EDT 7:20 PM EDT
Civil Twilight 7:07 AM EDT 7:47 PM EDT
Nautical Twilight 6:35 AM EDT 8:19 PM EDT
Astronomical Twilight 6:03 AM EDT 8:51 PM EDT
Moon 12:39 PM EDT (10/1) 10:16 PM EDT (10/1)
Length of Visible Light 12h 40m
Length of Day
11h 46m
Waxing Crescent, 24% of the Moon is Illuminated
Oct 1
Waxing Crescent
Oct 3
First Quarter
Oct 11
Full
Oct 19
Last Quarter
Oct 26
New

Hourly Weather History & Observations

Time (EDT) Temp. Windchill Dew Point Humidity Pressure Visibility Wind Dir Wind Speed Gust Speed Precip Events Conditions
12:15 AM 41.0 °F 36.4 °F 37.4 °F 87% 30.00 in 10.0 mi North 6.9 mph - N/A   Overcast
12:35 AM 41.0 °F 35.8 °F 37.4 °F 87% 30.00 in 10.0 mi NNW 8.1 mph - N/A   Light Drizzle
12:55 AM 41.0 °F 34.7 °F 37.4 °F 87% 30.00 in 7.0 mi North 10.4 mph 17.3 mph N/A Rain Light Rain
1:15 AM 41.0 °F 35.2 °F 37.4 °F 87% 30.00 in 10.0 mi North 9.2 mph 16.1 mph N/A   Overcast
1:35 AM 41.0 °F 34.7 °F 37.4 °F 87% 30.00 in 10.0 mi North 10.4 mph 16.1 mph N/A   Overcast
1:55 AM 39.2 °F 32.5 °F 35.6 °F 87% 30.00 in 10.0 mi North 10.4 mph - N/A   Mostly Cloudy
2:15 AM 37.4 °F 31.4 °F 35.6 °F 93% 30.00 in 10.0 mi NNW 8.1 mph - N/A   Mostly Cloudy
2:35 AM 37.4 °F 31.4 °F 35.6 °F 93% 30.00 in 10.0 mi NNW 8.1 mph - N/A   Overcast
2:55 AM 37.4 °F 31.4 °F 35.6 °F 93% 30.00 in 10.0 mi NNW 8.1 mph - N/A   Mostly Cloudy
3:15 AM 37.4 °F 32.1 °F 35.6 °F 93% 30.01 in 10.0 mi NNW 6.9 mph - N/A   Mostly Cloudy
3:35 AM 37.4 °F 30.8 °F 35.6 °F 93% 30.01 in 10.0 mi NNW 9.2 mph - N/A   Overcast
3:55 AM 39.2 °F 32.5 °F 35.6 °F 87% 30.01 in 10.0 mi NNW 10.4 mph 16.1 mph N/A   Overcast
4:15 AM 39.2 °F 32.5 °F 37.4 °F 93% 30.01 in 10.0 mi NNW 10.4 mph 17.3 mph N/A   Overcast
4:35 AM 39.2 °F 32.0 °F 37.4 °F 93% 30.02 in 10.0 mi NNW 11.5 mph 20.7 mph N/A   Overcast
4:55 AM 41.0 °F 34.7 °F 37.4 °F 87% 30.02 in 10.0 mi North 10.4 mph 19.6 mph N/A   Overcast
5:15 AM 41.0 °F 33.9 °F 37.4 °F 87% 30.02 in 10.0 mi NNW 12.7 mph 18.4 mph N/A   Overcast
5:35 AM 41.0 °F 34.3 °F 37.4 °F 87% 30.03 in 10.0 mi North 11.5 mph 20.7 mph N/A   Overcast
5:55 AM 39.2 °F 33.0 °F 37.4 °F 93% 30.03 in 10.0 mi NNW 9.2 mph 18.4 mph N/A   Overcast
6:15 AM 39.2 °F 33.0 °F 37.4 °F 93% 30.03 in 10.0 mi NNW 9.2 mph - N/A   Overcast
6:35 AM 39.2 °F 32.5 °F 37.4 °F 93% 30.03 in 10.0 mi NNW 10.4 mph - N/A   Overcast
6:55 AM 41.0 °F 34.7 °F 37.4 °F 87% 30.04 in 10.0 mi NNW 10.4 mph 17.3 mph N/A   Overcast
7:15 AM 41.0 °F 34.7 °F 37.4 °F 87% 30.04 in 10.0 mi NNW 10.4 mph 16.1 mph N/A   Overcast
7:35 AM 41.0 °F 33.9 °F 37.4 °F 87% 30.05 in 10.0 mi NNW 12.7 mph 17.3 mph N/A   Overcast
7:55 AM 41.0 °F 34.7 °F 37.4 °F 87% 30.05 in 10.0 mi NNW 10.4 mph 17.3 mph N/A Rain Light Rain
8:15 AM 41.0 °F 35.8 °F 37.4 °F 87% 30.06 in 7.0 mi North 8.1 mph - N/A   Light Drizzle
8:35 AM 41.0 °F 34.7 °F 37.4 °F 87% 30.07 in 10.0 mi NNW 10.4 mph - N/A   Overcast
8:55 AM 41.0 °F 34.7 °F 37.4 °F 87% 30.07 in 10.0 mi NNW 10.4 mph - N/A   Overcast
9:15 AM 41.0 °F 34.7 °F 37.4 °F 87% 30.08 in 10.0 mi NNW 10.4 mph 16.1 mph N/A   Overcast
9:35 AM 42.8 °F 37.0 °F 39.2 °F 87% 30.09 in 10.0 mi North 10.4 mph 18.4 mph N/A   Overcast
9:55 AM 42.8 °F 36.2 °F 37.4 °F 81% 30.10 in 10.0 mi North 12.7 mph 18.4 mph N/A   Overcast
10:35 AM 44.6 °F 38.4 °F 37.4 °F 76% 30.12 in 10.0 mi North 12.7 mph 21.9 mph N/A   Overcast
10:55 AM 44.6 °F 38.1 °F 37.4 °F 76% 30.12 in 10.0 mi North 13.8 mph 24.2 mph N/A   Overcast
11:15 AM 44.6 °F 38.1 °F 37.4 °F 76% 30.13 in 10.0 mi North 13.8 mph 21.9 mph N/A   Overcast
11:35 AM 44.6 °F 38.8 °F 37.4 °F 76% 30.14 in 10.0 mi North 11.5 mph 20.7 mph N/A   Overcast
11:55 AM 44.6 °F 37.8 °F 39.2 °F 81% 30.14 in 10.0 mi North 15.0 mph 21.9 mph N/A   Overcast
12:15 PM 46.4 °F 40.7 °F 39.2 °F 76% 30.13 in 10.0 mi North 12.7 mph 20.7 mph N/A   Overcast
12:35 PM 46.4 °F 40.4 °F 39.2 °F 76% 30.14 in 10.0 mi North 13.8 mph 20.7 mph N/A   Overcast
12:55 PM 46.4 °F 40.1 °F 39.2 °F 76% 30.14 in 10.0 mi North 15.0 mph 23.0 mph N/A   Overcast
1:15 PM 46.4 °F 41.5 °F 39.2 °F 76% 30.14 in 10.0 mi North 10.4 mph 20.7 mph N/A   Overcast
1:55 PM 44.6 °F 37.2 °F 37.4 °F 76% 30.15 in 10.0 mi North 17.3 mph 25.3 mph N/A   Overcast
2:15 PM 44.6 °F 38.1 °F 37.4 °F 76% 30.15 in 10.0 mi NNW 13.8 mph 24.2 mph N/A   Overcast
2:55 PM 44.6 °F 38.1 °F 37.4 °F 76% 30.15 in 10.0 mi North 13.8 mph 18.4 mph N/A   Overcast
3:35 PM 46.4 °F 41.1 °F 37.4 °F 71% 30.17 in 10.0 mi NNW 11.5 mph 20.7 mph N/A   Overcast
3:55 PM 46.4 °F 40.7 °F 37.4 °F 71% 30.16 in 10.0 mi NNW 12.7 mph 20.7 mph N/A   Overcast
4:15 PM 46.4 °F 41.5 °F 37.4 °F 71% 30.17 in 10.0 mi North 10.4 mph - N/A   Overcast
4:35 PM 46.4 °F 42.9 °F 37.4 °F 71% 30.17 in 10.0 mi North 6.9 mph - N/A   Overcast
4:55 PM 46.4 °F 41.9 °F 37.4 °F 71% 30.16 in 10.0 mi North 9.2 mph - N/A   Overcast
5:15 PM 48.2 °F - 37.4 °F 66% 30.16 in 10.0 mi NNW 5.8 mph - N/A   Overcast
5:35 PM 48.2 °F - 37.4 °F 66% 30.16 in 10.0 mi NNW 8.1 mph - N/A   Mostly Cloudy
5:55 PM 46.4 °F 44.3 °F 37.4 °F 71% 30.15 in 10.0 mi North 4.6 mph - N/A   Mostly Cloudy
6:15 PM 50.0 °F - 37.4 °F 62% 30.15 in 10.0 mi North 4.6 mph - N/A   Mostly Cloudy
6:35 PM 50.0 °F - 35.6 °F 58% 30.14 in 10.0 mi NNW 10.4 mph - N/A   Overcast
6:55 PM 50.0 °F - 35.6 °F 58% 30.15 in 10.0 mi North 6.9 mph - N/A   Mostly Cloudy
7:15 PM 46.4 °F 42.9 °F 37.4 °F 71% 30.15 in 10.0 mi North 6.9 mph - N/A   Clear
7:35 PM 44.6 °F 42.2 °F 37.4 °F 76% 30.16 in 10.0 mi North 4.6 mph - N/A   Scattered Clouds
7:55 PM 42.8 °F 40.1 °F 37.4 °F 81% 30.16 in 10.0 mi North 4.6 mph - N/A   Clear
8:15 PM 41.0 °F 37.1 °F 37.4 °F 87% 30.16 in 10.0 mi North 5.8 mph - N/A   Clear
8:35 PM 41.0 °F 38.0 °F 37.4 °F 87% 30.16 in 10.0 mi North 4.6 mph - N/A   Clear
8:55 PM 41.0 °F 37.1 °F 37.4 °F 87% 30.17 in 10.0 mi North 5.8 mph - N/A   Scattered Clouds
9:15 PM 42.8 °F 40.1 °F 37.4 °F 81% 30.18 in 10.0 mi North 4.6 mph - N/A   Mostly Cloudy
9:35 PM 41.0 °F 38.0 °F 37.4 °F 87% 30.18 in 10.0 mi North 4.6 mph - N/A   Scattered Clouds
9:55 PM 41.0 °F 37.1 °F 37.4 °F 87% 30.18 in 10.0 mi North 5.8 mph - N/A   Clear
10:15 PM 39.2 °F 35.9 °F 37.4 °F 93% 30.18 in 10.0 mi North 4.6 mph - N/A   Clear
10:55 PM 37.4 °F 32.8 °F 35.6 °F 93% 30.18 in 10.0 mi North 5.8 mph - N/A   Clear
11:15 PM 37.4 °F 33.8 °F 35.6 °F 93% 30.18 in 10.0 mi North 4.6 mph - N/A   Clear
11:35 PM 37.4 °F 32.8 °F 35.6 °F 93% 30.18 in 10.0 mi North 5.8 mph - N/A   Clear
11:55 PM 37.4 °F 33.8 °F 35.6 °F 93% 30.18 in 10.0 mi North 4.6 mph - N/A   Clear